Time,TemperatureF,DewpointF,PressureIn,WindDirection,WindDirectionDegrees,WindSpeedMPH,WindSpeedGustMPH,Humidity,HourlyPrecipIn,Conditions,Clouds,dailyrainin,SolarRadiationWatts/m^2,SoftwareType,DateUTC
2013-01-14 00:00:00,13.9,9.1,30.30,WNW,284,6.9,6.9,81,0.00,CLR,,0.01,0.0,WeatherDisplay:10.37,2013-01-14 06:00:00,
2013-01-14 00:05:00,13.8,9.0,30.31,WNW,286,3.5,3.5,81,0.00,RA,,0.00,0.0,WeatherDisplay:10.37,2013-01-14 06:05:00,
2013-01-14 00:10:00,13.8,9.3,30.31,West,281,6.0,6.0,82,0.00,RA,,0.00,0.0,WeatherDisplay:10.37,2013-01-14 06:10:00,
2013-01-14 00:15:00,13.7,9.0,30.31,WNW,287,6.9,6.9,81,0.00,CLR,,0.00,0.0,WeatherDisplay:10.37,2013-01-14 06:15:00,
2013-01-14 00:20:00,13.7,9.0,30.32,West,269,4.6,4.6,81,0.00,CLR,,0.00,0.0,WeatherDisplay:10.37,2013-01-14 06:20:00,
2013-01-14 00:25:00,13.6,8.9,30.32,NW,305,9.2,9.2,81,0.00,CLR,,0.00,0.0,WeatherDisplay:10.37,2013-01-14 06:25:00,
2013-01-14 00:30:00,13.6,8.9,30.32,WSW,252,7.0,7.0,81,0.00,CLR,,0.00,0.0,WeatherDisplay:10.37,2013-01-14 06:30:00,
2013-01-14 00:35:00,13.5,8.5,30.32,WNW,291,9.2,9.2,80,0.00,CLR,,0.00,0.0,WeatherDisplay:10.37,2013-01-14 06:35:00,
2013-01-14 00:40:00,13.5,8.8,30.32,WSW,246,6.9,6.9,81,0.00,CLR,,0.00,0.0,WeatherDisplay:10.37,2013-01-14 06:40:00,
2013-01-14 00:45:00,13.5,8.8,30.32,West,261,4.6,4.6,81,0.00,CLR,,0.00,0.0,WeatherDisplay:10.37,2013-01-14 06:45:00,
2013-01-14 00:50:00,13.4,8.7,30.32,WNW,286,5.8,5.8,81,0.00,CLR,,0.00,0.0,WeatherDisplay:10.37,2013-01-14 06:50:00,
2013-01-14 00:55:00,13.4,8.7,30.33,West,261,4.6,4.6,81,0.00,CLR,,0.00,0.0,WeatherDisplay:10.37,2013-01-14 06:55:00,
2013-01-14 01:00:00,13.4,8.7,30.33,WSW,258,4.6,4.6,81,0.00,CLR,,0.00,0.0,WeatherDisplay:10.37,2013-01-14 07:00:00,
2013-01-14 01:05:00,13.3,8.6,30.33,West,279,5.0,5.0,81,0.00,CLR,,0.00,0.0,WeatherDisplay:10.37,2013-01-14 07:05:00,
2013-01-14 01:10:00,13.3,8.6,30.34,West,272,4.0,4.0,81,0.00,CLR,,0.00,0.0,WeatherDisplay:10.37,2013-01-14 07:10:00,
2013-01-14 01:15:00,13.2,8.5,30.34,WNW,286,4.6,4.6,81,0.00,CLR,,0.00,0.0,WeatherDisplay:10.37,2013-01-14 07:15:00,
2013-01-14 01:20:00,13.2,8.7,30.35,WNW,284,4.6,4.6,82,0.00,CLR,,0.00,0.0,WeatherDisplay:10.37,2013-01-14 07:20:00,
2013-01-14 01:25:00,13.2,8.5,30.35,WNW,284,6.0,6.0,81,0.00,CLR,,0.00,0.0,WeatherDisplay:10.37,2013-01-14 07:25:00,
2013-01-14 01:30:00,13.2,8.5,30.35,West,266,5.8,5.8,81,0.00,CLR,,0.00,0.0,WeatherDisplay:10.37,2013-01-14 07:30:00,
2013-01-14 01:35:00,13.2,8.5,30.36,WSW,258,4.6,4.6,81,0.00,CLR,,0.00,0.0,WeatherDisplay:10.37,2013-01-14 07:35:00,
2013-01-14 01:40:00,13.1,8.4,30.36,West,263,5.8,5.8,81,0.00,CLR,,0.00,0.0,WeatherDisplay:10.37,2013-01-14 07:40:00,
2013-01-14 01:45:00,13.1,8.4,30.36,West,279,5.8,5.8,81,0.00,CLR,,0.00,0.0,WeatherDisplay:10.37,2013-01-14 07:45:00,
2013-01-14 01:50:00,13.1,8.4,30.37,WSW,256,5.8,5.8,81,0.00,CLR,,0.00,0.0,WeatherDisplay:10.37,2013-01-14 07:50:00,
2013-01-14 01:55:00,13.1,8.4,30.37,West,269,4.6,4.6,81,0.00,CLR,,0.00,0.0,WeatherDisplay:10.37,2013-01-14 07:55:00,
2013-01-14 02:00:00,13.1,8.4,30.38,SW,236,4.6,4.6,81,0.00,CLR,,0.00,0.0,WeatherDisplay:10.37,2013-01-14 08:00:00,
2013-01-14 02:05:00,13.1,8.6,30.38,WSW,257,8.1,8.1,82,0.00,CLR,,0.00,0.0,WeatherDisplay:10.37,2013-01-14 08:05:00,
2013-01-14 02:10:00,13.1,8.4,30.38,WNW,298,4.6,4.6,81,0.00,CLR,,0.00,0.0,WeatherDisplay:10.37,2013-01-14 08:10:00,
2013-01-14 02:15:00,13.0,8.3,30.38,WSW,241,8.1,8.1,81,0.00,CLR,,0.00,0.0,WeatherDisplay:10.37,2013-01-14 08:15:00,
2013-01-14 02:20:00,13.1,8.4,30.38,West,271,4.6,4.6,81,0.00,CLR,,0.00,0.0,WeatherDisplay:10.37,2013-01-14 08:20:00,
2013-01-14 02:25:00,13.1,8.4,30.39,West,276,5.8,5.8,81,0.00,CLR,,0.00,0.0,WeatherDisplay:10.37,2013-01-14 08:25:00,
2013-01-14 02:30:00,13.1,8.1,30.39,WSW,254,4.6,4.6,80,0.00,CLR,,0.00,0.0,WeatherDisplay:10.37,2013-01-14 08:30:00,
2013-01-14 02:35:00,13.1,8.4,30.40,WSW,256,6.9,6.9,81,0.00,CLR,,0.00,0.0,WeatherDisplay:10.37,2013-01-14 08:35:00,
2013-01-14 02:40:00,13.1,8.4,30.40,West,275,9.2,9.2,81,0.00,CLR,,0.00,0.0,WeatherDisplay:10.37,2013-01-14 08:40:00,
2013-01-14 02:46:00,13.1,8.4,30.40,WNW,287,6.9,6.9,81,0.00,CLR,,0.00,0.0,WeatherDisplay:10.37,2013-01-14 08:46:00,
2013-01-14 02:51:00,13.1,8.4,30.41,WSW,254,5.8,5.8,81,0.00,CLR,,0.00,0.0,WeatherDisplay:10.37,2013-01-14 08:51:00,
2013-01-14 02:56:00,13.1,8.4,30.40,West,272,4.6,4.6,81,0.00,CLR,,0.00,0.0,WeatherDisplay:10.37,2013-01-14 08:56:00,
2013-01-14 03:01:00,13.1,8.4,30.41,West,276,3.5,3.5,81,0.00,CLR,,0.00,0.0,WeatherDisplay:10.37,2013-01-14 09:01:00,
2013-01-14 03:06:00,13.1,8.4,30.40,WNW,285,6.0,6.0,81,0.00,CLR,,0.00,0.0,WeatherDisplay:10.37,2013-01-14 09:06:00,
2013-01-14 03:11:00,13.0,8.3,30.41,WNW,283,5.8,5.8,81,0.00,CLR,,0.00,0.0,WeatherDisplay:10.37,2013-01-14 09:11:00,
2013-01-14 03:16:00,13.0,8.5,30.41,WSW,239,5.0,5.0,82,0.00,CLR,,0.00,0.0,WeatherDisplay:10.37,2013-01-14 09:16:00,
2013-01-14 03:21:00,13.0,8.5,30.41,WSW,243,6.0,6.0,82,0.00,CLR,,0.00,0.0,WeatherDisplay:10.37,2013-01-14 09:21:00,
2013-01-14 03:26:00,13.0,8.5,30.42,West,275,3.5,3.5,82,0.00,CLR,,0.00,0.0,WeatherDisplay:10.37,2013-01-14 09:26:00,
2013-01-14 03:31:00,12.9,8.7,30.41,WNW,286,3.5,3.5,83,0.00,CLR,,0.00,0.0,WeatherDisplay:10.37,2013-01-14 09:31:00,
2013-01-14 03:36:00,12.9,8.4,30.41,WSW,250,4.6,4.6,82,0.00,CLR,,0.00,0.0,WeatherDisplay:10.37,2013-01-14 09:36:00,
2013-01-14 03:41:00,12.8,8.6,30.42,West,261,4.6,4.6,83,0.00,CLR,,0.00,0.0,WeatherDisplay:10.37,2013-01-14 09:41:00,
2013-01-14 03:46:00,12.8,8.6,30.42,WNW,294,4.0,4.0,83,0.00,CLR,,0.00,0.0,WeatherDisplay:10.37,2013-01-14 09:46:00,
2013-01-14 03:51:00,12.8,8.6,30.42,West,277,5.8,5.8,83,0.00,CLR,,0.00,0.0,WeatherDisplay:10.37,2013-01-14 09:51:00,
2013-01-14 03:56:00,12.8,8.6,30.42,WNW,292,5.8,5.8,83,0.00,CLR,,0.00,0.0,WeatherDisplay:10.37,2013-01-14 09:56:00,
2013-01-14 04:01:00,12.8,8.6,30.42,WSW,251,5.0,5.0,83,0.00,CLR,,0.00,0.0,WeatherDisplay:10.37,2013-01-14 10:01:00,
2013-01-14 04:06:00,12.8,8.6,30.42,WSW,252,4.6,4.6,83,0.00,CLR,,0.00,0.0,WeatherDisplay:10.37,2013-01-14 10:06:00,
2013-01-14 04:11:00,12.8,8.6,30.42,West,269,4.6,4.6,83,0.00,CLR,,0.00,0.0,WeatherDisplay:10.37,2013-01-14 10:11:00,
2013-01-14 04:16:00,12.8,8.6,30.42,West,270,4.6,4.6,83,0.00,CLR,,0.00,0.0,WeatherDisplay:10.37,2013-01-14 10:16:00,
2013-01-14 04:21:00,12.7,8.5,30.42,WSW,251,4.6,4.6,83,0.00,CLR,,0.00,0.0,WeatherDisplay:10.37,2013-01-14 10:21:00,
2013-01-14 04:26:00,12.7,8.5,30.42,West,266,2.3,2.3,83,0.00,CLR,,0.00,0.0,WeatherDisplay:10.37,2013-01-14 10:26:00,
2013-01-14 04:31:00,12.7,8.5,30.42,WSW,241,3.5,3.5,83,0.00,CLR,,0.00,0.0,WeatherDisplay:10.37,2013-01-14 10:31:00,
2013-01-14 04:36:00,12.7,8.5,30.42,WNW,285,3.5,3.5,83,0.00,CLR,,0.00,0.0,WeatherDisplay:10.37,2013-01-14 10:36:00,
2013-01-14 04:41:00,12.6,8.4,30.42,West,263,5.8,5.8,83,0.00,CLR,,0.00,0.0,WeatherDisplay:10.37,2013-01-14 10:41:00,
2013-01-14 04:46:00,12.6,8.4,30.42,WNW,282,3.5,3.5,83,0.00,CLR,,0.00,0.0,WeatherDisplay:10.37,2013-01-14 10:46:00,
2013-01-14 04:51:00,12.6,8.4,30.42,West,265,5.0,5.0,83,0.00,CLR,,0.00,0.0,WeatherDisplay:10.37,2013-01-14 10:51:00,
2013-01-14 04:56:00,12.6,8.4,30.42,West,280,4.6,4.6,83,0.00,CLR,,0.00,0.0,WeatherDisplay:10.37,2013-01-14 10:56:00,
2013-01-14 05:01:00,12.6,8.4,30.42,WSW,249,3.5,3.5,83,0.00,CLR,,0.00,0.0,WeatherDisplay:10.37,2013-01-14 11:01:00,
2013-01-14 05:06:00,12.6,8.4,30.42,WNW,289,5.0,5.0,83,0.00,CLR,,0.00,0.0,WeatherDisplay:10.37,2013-01-14 11:06:00,
2013-01-14 05:11:00,12.6,8.7,30.42,WNW,303,5.8,5.8,84,0.00,CLR,,0.00,0.0,WeatherDisplay:10.37,2013-01-14 11:11:00,
2013-01-14 05:16:00,12.6,8.7,30.42,WNW,289,5.8,5.8,84,0.00,CLR,,0.00,0.0,WeatherDisplay:10.37,2013-01-14 11:16:00,
2013-01-14 05:21:00,12.5,8.6,30.42,WNW,298,4.6,4.6,84,0.00,CLR,,0.00,0.0,WeatherDisplay:10.37,2013-01-14 11:21:00,
2013-01-14 05:26:00,12.6,8.7,30.43,West,267,8.1,8.1,84,0.00,CLR,,0.00,0.0,WeatherDisplay:10.37,2013-01-14 11:26:00,
2013-01-14 05:31:00,12.6,8.4,30.43,WNW,285,8.1,8.1,83,0.00,CLR,,0.00,0.0,WeatherDisplay:10.37,2013-01-14 11:31:00,
2013-01-14 05:36:00,12.6,8.7,30.43,WNW,296,6.0,6.0,84,0.00,CLR,,0.00,0.0,WeatherDisplay:10.37,2013-01-14 11:36:00,
2013-01-14 05:41:00,12.6,8.4,30.44,NW,315,6.9,6.9,83,0.00,CLR,,0.00,0.0,WeatherDisplay:10.37,2013-01-14 11:41:00,
2013-01-14 05:46:00,12.7,8.5,30.44,WNW,292,9.2,9.2,83,0.00,CLR,,0.00,0.0,WeatherDisplay:10.37,2013-01-14 11:46:00,
2013-01-14 05:51:00,12.6,8.1,30.44,WSW,255,8.1,8.1,82,0.00,CLR,,0.00,0.0,WeatherDisplay:10.37,2013-01-14 11:51:00,
2013-01-14 05:56:00,12.6,8.1,30.44,NW,316,7.0,7.0,82,0.00,CLR,,0.00,0.0,WeatherDisplay:10.37,2013-01-14 11:56:00,
2013-01-14 06:01:00,12.6,8.1,30.45,NNW,327,9.2,9.2,82,0.00,CLR,,0.00,0.0,WeatherDisplay:10.37,2013-01-14 12:01:00,
2013-01-14 06:06:00,12.6,8.1,30.45,West,277,10.4,10.4,82,0.00,CLR,,0.00,0.0,WeatherDisplay:10.37,2013-01-14 12:06:00,
2013-01-14 06:11:00,12.6,8.1,30.45,WNW,303,10.4,10.4,82,0.00,CLR,,0.00,0.0,WeatherDisplay:10.37,2013-01-14 12:11:00,
2013-01-14 06:16:00,12.6,8.4,30.45,NW,309,10.4,10.4,83,0.00,CLR,,0.00,0.0,WeatherDisplay:10.37,2013-01-14 12:16:00,
2013-01-14 06:21:00,12.5,8.3,30.45,NW,312,7.0,7.0,83,0.00,CLR,,0.00,0.0,WeatherDisplay:10.37,2013-01-14 12:21:00,
2013-01-14 06:26:00,12.5,8.3,30.45,NW,319,9.2,9.2,83,0.00,CLR,,0.00,0.0,WeatherDisplay:10.37,2013-01-14 12:26:00,
2013-01-14 06:31:00,12.4,8.2,30.45,NW,306,11.0,11.0,83,0.00,CLR,,0.00,0.0,WeatherDisplay:10.37,2013-01-14 12:31:00,
2013-01-14 06:36:00,12.4,8.2,30.45,NW,310,10.4,10.4,83,0.00,CLR,,0.00,0.0,WeatherDisplay:10.37,2013-01-14 12:36:00,
2013-01-14 06:41:00,12.4,8.2,30.45,WNW,296,11.5,11.5,83,0.00,CLR,,0.00,0.0,WeatherDisplay:10.37,2013-01-14 12:41:00,
2013-01-14 06:46:00,12.3,8.1,30.45,WNW,300,11.0,11.0,83,0.00,CLR,,0.00,0.0,WeatherDisplay:10.37,2013-01-14 12:46:00,
2013-01-14 06:52:00,12.3,8.4,30.45,NW,317,10.4,10.4,84,0.00,CLR,,0.00,0.0,WeatherDisplay:10.37,2013-01-14 12:52:00,
2013-01-14 06:57:00,12.3,8.4,30.45,NW,322,11.5,11.5,84,0.00,CLR,,0.00,0.0,WeatherDisplay:10.37,2013-01-14 12:57:00,
2013-01-14 07:02:00,12.3,8.4,30.45,NW,316,11.5,11.5,84,0.00,CLR,,0.00,0.0,WeatherDisplay:10.37,2013-01-14 13:02:00,
2013-01-14 07:07:00,12.2,8.3,30.45,NW,311,10.4,10.4,84,0.00,CLR,,0.00,0.0,WeatherDisplay:10.37,2013-01-14 13:07:00,
2013-01-14 07:12:00,12.2,8.3,30.45,NW,307,9.2,9.2,84,0.00,CLR,,0.00,0.0,WeatherDisplay:10.37,2013-01-14 13:12:00,
2013-01-14 07:17:00,12.1,8.2,30.46,WNW,289,9.2,9.2,84,0.00,CLR,,0.00,5.0,WeatherDisplay:10.37,2013-01-14 13:17:00,
2013-01-14 07:22:00,12.1,8.2,30.46,WNW,303,9.2,9.2,84,0.00,CLR,,0.00,12.0,WeatherDisplay:10.37,2013-01-14 13:22:00,
2013-01-14 07:27:00,12.1,8.2,30.46,NW,307,11.5,11.5,84,0.00,CLR,,0.00,25.0,WeatherDisplay:10.37,2013-01-14 13:27:00,
2013-01-14 07:32:00,12.2,8.3,30.47,NW,317,9.2,9.2,84,0.00,CLR,,0.00,37.0,WeatherDisplay:10.37,2013-01-14 13:32:00,
2013-01-14 07:37:00,12.3,8.4,30.47,NW,315,8.1,8.1,84,0.00,CLR,,0.00,49.0,WeatherDisplay:10.37,2013-01-14 13:37:00,
2013-01-14 07:42:00,12.3,8.4,30.47,NW,321,11.5,11.5,84,0.00,CLR,,0.00,63.0,WeatherDisplay:10.37,2013-01-14 13:42:00,
2013-01-14 07:47:00,12.4,8.5,30.47,NW,306,11.5,11.5,84,0.00,CLR,,0.00,79.0,WeatherDisplay:10.37,2013-01-14 13:47:00,
2013-01-14 07:52:00,12.5,8.6,30.47,NW,319,10.4,10.4,84,0.00,CLR,,0.00,95.0,WeatherDisplay:10.37,2013-01-14 13:52:00,
2013-01-14 07:57:00,12.6,8.7,30.47,NW,323,10.0,10.0,84,0.00,CLR,,0.00,105.0,WeatherDisplay:10.37,2013-01-14 13:57:00,
2013-01-14 08:02:00,12.7,8.8,30.47,NW,319,9.2,9.2,84,0.00,CLR,,0.00,121.0,WeatherDisplay:10.37,2013-01-14 14:02:00,
2013-01-14 08:07:00,12.9,9.0,30.47,NW,321,11.5,11.5,84,0.00,CLR,,0.00,135.0,WeatherDisplay:10.37,2013-01-14 14:07:00,
2013-01-14 08:12:00,13.1,9.2,30.47,NW,325,10.0,10.0,84,0.00,CLR,,0.00,148.0,WeatherDisplay:10.37,2013-01-14 14:12:00,
2013-01-14 08:17:00,13.2,9.3,30.47,NW,321,11.5,11.5,84,0.00,CLR,,0.00,162.0,WeatherDisplay:10.37,2013-01-14 14:17:00,
2013-01-14 08:22:00,13.5,9.8,30.48,NW,326,11.5,11.5,85,0.00,CLR,,0.00,176.0,WeatherDisplay:10.37,2013-01-14 14:22:00,
2013-01-14 08:27:00,13.6,9.4,30.48,NNW,331,9.2,9.2,83,0.00,CLR,,0.00,188.0,WeatherDisplay:10.37,2013-01-14 14:27:00,
2013-01-14 08:32:00,13.8,9.9,30.48,NW,321,12.7,12.7,84,0.00,CLR,,0.00,200.0,WeatherDisplay:10.37,2013-01-14 14:32:00,
2013-01-14 08:37:00,13.7,9.5,30.48,NW,321,11.5,11.5,83,0.00,CLR,,0.00,211.0,WeatherDisplay:10.37,2013-01-14 14:37:00,
2013-01-14 08:42:00,13.8,9.6,30.48,NNW,329,9.2,9.2,83,0.00,CLR,,0.00,221.0,WeatherDisplay:10.37,2013-01-14 14:42:00,
2013-01-14 08:47:00,14.2,10.3,30.47,NW,315,9.2,9.2,84,0.00,CLR,,0.00,232.0,WeatherDisplay:10.37,2013-01-14 14:47:00,
2013-01-14 08:52:00,14.6,10.9,30.47,NNW,331,10.4,10.4,85,0.00,CLR,,0.00,244.0,WeatherDisplay:10.37,2013-01-14 14:52:00,
2013-01-14 08:57:00,14.7,10.7,30.47,NNW,340,9.2,9.2,84,0.00,CLR,,0.00,255.0,WeatherDisplay:10.37,2013-01-14 14:57:00,
2013-01-14 09:02:00,14.8,10.6,30.47,NW,319,8.1,8.1,83,0.00,CLR,,0.00,264.0,WeatherDisplay:10.37,2013-01-14 15:02:00,
2013-01-14 09:07:00,15.0,11.0,30.47,NNW,338,10.4,10.4,84,0.00,CLR,,0.00,279.0,WeatherDisplay:10.37,2013-01-14 15:07:00,
2013-01-14 09:12:00,15.2,11.2,30.46,NNW,329,11.5,11.5,84,0.00,CLR,,0.00,287.0,WeatherDisplay:10.37,2013-01-14 15:12:00,
2013-01-14 09:17:00,15.4,11.4,30.46,NW,305,6.9,6.9,84,0.00,CLR,,0.00,295.0,WeatherDisplay:10.37,2013-01-14 15:17:00,
2013-01-14 09:22:00,15.5,11.3,30.46,North,355,10.4,10.4,83,0.00,CLR,,0.00,304.0,WeatherDisplay:10.37,2013-01-14 15:22:00,
2013-01-14 09:27:00,15.7,12.0,30.47,NNW,338,9.0,9.0,85,0.00,CLR,,0.00,318.0,WeatherDisplay:10.37,2013-01-14 15:27:00,
2013-01-14 09:32:00,16.2,12.5,30.48,NNW,331,8.1,8.1,85,0.00,CLR,,0.00,325.0,WeatherDisplay:10.37,2013-01-14 15:32:00,
2013-01-14 09:37:00,16.3,12.0,30.48,North,355,8.1,8.1,83,0.00,CLR,,0.00,339.0,WeatherDisplay:10.37,2013-01-14 15:37:00,
2013-01-14 09:42:00,16.4,12.1,30.47,NNW,334,5.8,5.8,83,0.00,CLR,,0.00,343.0,WeatherDisplay:10.37,2013-01-14 15:42:00,
2013-01-14 09:47:00,16.7,12.7,30.47,NNW,333,7.0,7.0,84,0.00,CLR,,0.00,355.0,WeatherDisplay:10.37,2013-01-14 15:47:00,
2013-01-14 09:52:00,17.0,13.0,30.46,NW,316,8.1,8.1,84,0.00,CLR,,0.00,360.0,WeatherDisplay:10.37,2013-01-14 15:52:00,
2013-01-14 09:57:00,17.0,13.0,30.46,North,355,9.2,9.2,84,0.00,CLR,,0.00,366.0,WeatherDisplay:10.37,2013-01-14 15:57:00,
2013-01-14 10:02:00,17.5,13.5,30.46,NNW,336,6.9,6.9,84,0.00,CLR,,0.00,374.0,WeatherDisplay:10.37,2013-01-14 16:02:00,
2013-01-14 10:07:00,17.8,13.8,30.47,NW,318,8.1,8.1,84,0.00,CLR,,0.00,374.0,WeatherDisplay:10.37,2013-01-14 16:07:00,
2013-01-14 10:12:00,17.7,13.4,30.46,North,350,6.9,6.9,83,0.00,CLR,,0.00,385.0,WeatherDisplay:10.37,2013-01-14 16:12:00,
2013-01-14 10:17:00,18.1,14.4,30.46,North,5,6.9,6.9,85,0.00,CLR,,0.00,390.0,WeatherDisplay:10.37,2013-01-14 16:17:00,
2013-01-14 10:22:00,18.2,14.2,30.46,NNW,337,8.1,8.1,84,0.00,CLR,,0.00,396.0,WeatherDisplay:10.37,2013-01-14 16:22:00,
2013-01-14 10:27:00,18.3,14.0,30.47,North,360,10.4,10.4,83,0.00,CLR,,0.00,401.0,WeatherDisplay:10.37,2013-01-14 16:27:00,
2013-01-14 10:32:00,18.6,14.3,30.47,NW,323,8.1,8.1,83,0.00,CLR,,0.00,380.0,WeatherDisplay:10.37,2013-01-14 16:32:00,
2013-01-14 10:37:00,18.8,14.5,30.47,NNW,331,8.0,8.0,83,0.00,CLR,,0.00,369.0,WeatherDisplay:10.37,2013-01-14 16:37:00,
2013-01-14 10:42:00,18.7,14.1,30.47,NNW,342,4.6,4.6,82,0.00,CLR,,0.00,378.0,WeatherDisplay:10.37,2013-01-14 16:42:00,
2013-01-14 10:47:00,19.0,15.0,30.47,NNW,346,5.8,5.8,84,0.00,CLR,,0.00,355.0,WeatherDisplay:10.37,2013-01-14 16:47:00,
2013-01-14 10:52:00,19.3,15.3,30.47,NNW,338,6.0,6.0,84,0.00,CLR,,0.00,399.0,WeatherDisplay:10.37,2013-01-14 16:52:00,
2013-01-14 10:57:00,19.6,15.6,30.48,NNW,331,4.6,4.6,84,0.00,CLR,,0.00,401.0,WeatherDisplay:10.37,2013-01-14 16:57:00,
2013-01-14 11:02:00,19.6,15.0,30.48,NW,313,3.5,3.5,82,0.00,CLR,,0.00,422.0,WeatherDisplay:10.37,2013-01-14 17:02:00,
2013-01-14 11:07:00,19.8,15.2,30.48,NNW,344,5.8,5.8,82,0.00,CLR,,0.00,367.0,WeatherDisplay:10.37,2013-01-14 17:07:00,
2013-01-14 11:12:00,19.9,15.0,30.48,NNW,340,4.6,4.6,81,0.00,CLR,,0.00,306.0,WeatherDisplay:10.37,2013-01-14 17:12:00,
2013-01-14 11:17:00,20.0,15.4,30.48,North,349,4.6,4.6,82,0.00,CLR,,0.00,260.0,WeatherDisplay:10.37,2013-01-14 17:17:00,
2013-01-14 11:22:00,20.1,15.5,30.48,NW,313,3.5,3.5,82,0.00,CLR,,0.00,302.0,WeatherDisplay:10.37,2013-01-14 17:22:00,
2013-01-14 11:27:00,20.4,16.1,30.47,NW,312,3.5,3.5,83,0.00,CLR,,0.00,325.0,WeatherDisplay:10.37,2013-01-14 17:27:00,
2013-01-14 11:32:00,20.5,15.9,30.47,North,360,3.0,3.0,82,0.00,CLR,,0.00,229.0,WeatherDisplay:10.37,2013-01-14 17:32:00,
2013-01-14 11:37:00,20.5,15.9,30.47,North,360,3.5,3.5,82,0.00,CLR,,0.00,294.0,WeatherDisplay:10.37,2013-01-14 17:37:00,
2013-01-14 11:42:00,20.5,15.6,30.47,NW,315,3.5,3.5,81,0.00,CLR,,0.00,318.0,WeatherDisplay:10.37,2013-01-14 17:42:00,
2013-01-14 11:47:00,20.5,15.3,30.47,NW,319,3.5,3.5,80,0.00,CLR,,0.00,364.0,WeatherDisplay:10.37,2013-01-14 17:47:00,
2013-01-14 11:52:00,20.7,15.8,30.47,NNW,334,6.9,6.9,81,0.00,CLR,,0.00,302.0,WeatherDisplay:10.37,2013-01-14 17:52:00,
2013-01-14 11:57:00,20.8,15.9,30.47,NW,317,3.5,3.5,81,0.00,CLR,,0.00,239.0,WeatherDisplay:10.37,2013-01-14 17:57:00,
2013-01-14 12:02:00,20.9,16.0,30.47,North,360,4.0,4.0,81,0.00,CLR,,0.00,246.0,WeatherDisplay:10.37,2013-01-14 18:02:00,
2013-01-14 12:07:00,21.0,16.1,30.47,NW,313,4.0,4.0,81,0.00,CLR,,0.00,241.0,WeatherDisplay:10.37,2013-01-14 18:07:00,
2013-01-14 12:13:00,21.0,15.8,30.48,WNW,291,4.6,4.6,80,0.00,CLR,,0.00,218.0,WeatherDisplay:10.37,2013-01-14 18:13:00,
2013-01-14 12:18:00,21.1,15.9,30.48,WSW,252,3.5,3.5,80,0.00,CLR,,0.00,193.0,WeatherDisplay:10.37,2013-01-14 18:18:00,
2013-01-14 12:23:00,21.2,16.3,30.48,NW,306,5.8,5.8,81,0.00,CLR,,0.00,202.0,WeatherDisplay:10.37,2013-01-14 18:23:00,
2013-01-14 12:28:00,21.3,15.8,30.48,NW,313,3.5,3.5,79,0.00,CLR,,0.00,229.0,WeatherDisplay:10.37,2013-01-14 18:28:00,
2013-01-14 12:33:00,21.3,15.5,30.48,NW,310,0.0,0.0,78,0.00,CLR,,0.00,237.0,WeatherDisplay:10.37,2013-01-14 18:33:00,
2013-01-14 12:38:00,21.6,16.4,30.48,NW,308,2.3,2.3,80,0.00,CLR,,0.00,302.0,WeatherDisplay:10.37,2013-01-14 18:38:00,
2013-01-14 12:43:00,21.8,16.3,30.48,WNW,288,4.6,4.6,79,0.00,CLR,,0.00,202.0,WeatherDisplay:10.37,2013-01-14 18:43:00,
2013-01-14 12:48:00,21.8,16.0,30.48,West,281,3.5,3.5,78,0.00,CLR,,0.00,171.0,WeatherDisplay:10.37,2013-01-14 18:48:00,
2013-01-14 12:53:00,21.7,15.6,30.48,SW,223,3.5,3.5,77,0.00,CLR,,0.00,162.0,WeatherDisplay:10.37,2013-01-14 18:53:00,
2013-01-14 12:58:00,21.8,16.0,30.48,NW,313,3.5,3.5,78,0.00,CLR,,0.00,141.0,WeatherDisplay:10.37,2013-01-14 18:58:00,
2013-01-14 13:03:00,21.7,15.6,30.48,NW,324,3.5,3.5,77,0.00,CLR,,0.00,128.0,WeatherDisplay:10.37,2013-01-14 19:03:00,
2013-01-14 13:08:00,21.7,15.9,30.48,NW,323,3.5,3.5,78,0.00,CLR,,0.00,125.0,WeatherDisplay:10.37,2013-01-14 19:08:00,
2013-01-14 13:13:00,21.6,15.8,30.48,NW,304,3.5,3.5,78,0.00,CLR,,0.00,116.0,WeatherDisplay:10.37,2013-01-14 19:13:00,
2013-01-14 13:18:00,21.6,15.8,30.48,NW,306,3.0,3.0,78,0.00,CLR,,0.00,121.0,WeatherDisplay:10.37,2013-01-14 19:18:00,
2013-01-14 13:23:00,21.6,15.5,30.49,West,278,3.5,3.5,77,0.00,CLR,,0.00,113.0,WeatherDisplay:10.37,2013-01-14 19:23:00,
2013-01-14 13:28:00,21.6,15.5,30.48,NNW,333,5.8,5.8,77,0.00,CLR,,0.00,105.0,WeatherDisplay:10.37,2013-01-14 19:28:00,
2013-01-14 13:33:00,21.7,15.6,30.47,WNW,294,3.5,3.5,77,0.00,CLR,,0.00,107.0,WeatherDisplay:10.37,2013-01-14 19:33:00,
2013-01-14 13:38:00,21.8,16.0,30.47,NW,304,3.5,3.5,78,0.00,CLR,,0.00,113.0,WeatherDisplay:10.37,2013-01-14 19:38:00,
2013-01-14 13:43:00,21.8,16.0,30.48,WNW,300,4.6,4.6,78,0.00,CLR,,0.00,130.0,WeatherDisplay:10.37,2013-01-14 19:43:00,
2013-01-14 13:48:00,21.8,16.3,30.48,NW,304,5.8,5.8,79,0.00,CLR,,0.00,156.0,WeatherDisplay:10.37,2013-01-14 19:48:00,
2013-01-14 13:53:00,22.0,16.2,30.48,WNW,296,3.5,3.5,78,0.00,CLR,,0.00,144.0,WeatherDisplay:10.37,2013-01-14 19:53:00,
2013-01-14 13:58:00,22.2,16.4,30.48,NW,319,3.5,3.5,78,0.00,CLR,,0.00,162.0,WeatherDisplay:10.37,2013-01-14 19:58:00,
2013-01-14 14:03:00,22.3,16.8,30.48,NW,316,3.5,3.5,79,0.00,CLR,,0.00,167.0,WeatherDisplay:10.37,2013-01-14 20:03:00,
2013-01-14 14:08:00,22.5,17.0,30.49,NW,318,3.5,3.5,79,0.00,CLR,,0.00,192.0,WeatherDisplay:10.37,2013-01-14 20:08:00,
2013-01-14 14:13:00,22.5,16.1,30.49,West,277,3.5,3.5,76,0.00,CLR,,0.00,255.0,WeatherDisplay:10.37,2013-01-14 20:13:00,
2013-01-14 14:18:00,22.7,16.6,30.49,NW,315,3.5,3.5,77,0.00,CLR,,0.00,192.0,WeatherDisplay:10.37,2013-01-14 20:18:00,
2013-01-14 14:23:00,22.8,16.4,30.49,WSW,254,2.3,2.3,76,0.00,CLR,,0.00,227.0,WeatherDisplay:10.37,2013-01-14 20:23:00,
2013-01-14 14:28:00,23.0,16.9,30.48,NW,321,3.5,3.5,77,0.00,CLR,,0.00,258.0,WeatherDisplay:10.37,2013-01-14 20:28:00,
2013-01-14 14:33:00,23.2,17.4,30.49,WNW,285,6.0,6.0,78,0.00,CLR,,0.00,311.0,WeatherDisplay:10.37,2013-01-14 20:33:00,
2013-01-14 14:38:00,23.2,17.1,30.49,WNW,298,3.5,3.5,77,0.00,CLR,,0.00,297.0,WeatherDisplay:10.37,2013-01-14 20:38:00,
2013-01-14 14:43:00,23.3,16.9,30.50,West,281,2.3,2.3,76,0.00,CLR,,0.00,309.0,WeatherDisplay:10.37,2013-01-14 20:43:00,
2013-01-14 14:48:00,23.5,16.7,30.50,WNW,293,3.5,3.5,75,0.00,CLR,,0.00,267.0,WeatherDisplay:10.37,2013-01-14 20:48:00,
2013-01-14 14:53:00,23.5,16.4,30.51,WSW,249,4.6,4.6,74,0.00,CLR,,0.00,258.0,WeatherDisplay:10.37,2013-01-14 20:53:00,
2013-01-14 14:58:00,23.5,16.1,30.51,WNW,285,2.3,2.3,73,0.00,CLR,,0.00,255.0,WeatherDisplay:10.37,2013-01-14 20:58:00,
2013-01-14 15:03:00,23.6,16.2,30.51,NW,314,2.0,2.0,73,0.00,CLR,,0.00,255.0,WeatherDisplay:10.37,2013-01-14 21:03:00,
2013-01-14 15:08:00,23.6,16.2,30.50,NW,313,3.5,3.5,73,0.00,CLR,,0.00,214.0,WeatherDisplay:10.37,2013-01-14 21:08:00,
2013-01-14 15:13:00,23.6,16.5,30.51,NNW,328,3.5,3.5,74,0.00,CLR,,0.00,213.0,WeatherDisplay:10.37,2013-01-14 21:13:00,
2013-01-14 15:18:00,23.6,16.5,30.51,NNW,327,0.0,0.0,74,0.00,CLR,,0.00,223.0,WeatherDisplay:10.37,2013-01-14 21:18:00,
2013-01-14 15:23:00,23.8,17.0,30.50,NNW,327,0.0,0.0,75,0.00,CLR,,0.00,211.0,WeatherDisplay:10.37,2013-01-14 21:23:00,
2013-01-14 15:28:00,24.3,17.5,30.51,NW,321,1.0,1.0,75,0.00,CLR,,0.00,195.0,WeatherDisplay:10.37,2013-01-14 21:28:00,
2013-01-14 15:33:00,24.6,17.2,30.51,West,273,1.1,0.0,73,0.00,CLR,,0.00,181.0,WeatherDisplay:10.37,2013-01-14 21:33:00,
2013-01-14 15:38:00,24.9,17.5,30.51,West,273,0.0,0.0,73,0.00,CLR,,0.00,169.0,WeatherDisplay:10.37,2013-01-14 21:38:00,
2013-01-14 15:43:00,25.2,17.1,30.51,West,273,0.0,0.0,71,0.00,CLR,,0.00,156.0,WeatherDisplay:10.37,2013-01-14 21:43:00,
2013-01-14 15:48:00,25.2,16.8,30.50,West,273,0.0,0.0,70,0.00,CLR,,0.00,144.0,WeatherDisplay:10.37,2013-01-14 21:48:00,
2013-01-14 15:53:00,25.4,17.0,30.50,West,273,0.0,0.0,70,0.00,CLR,,0.00,127.0,WeatherDisplay:10.37,2013-01-14 21:53:00,
2013-01-14 15:58:00,25.5,16.7,30.51,West,273,0.0,0.0,69,0.00,CLR,,0.00,113.0,WeatherDisplay:10.37,2013-01-14 21:58:00,
2013-01-14 16:03:00,25.5,16.4,30.51,West,273,0.0,0.1,68,0.00,CLR,,0.00,98.0,WeatherDisplay:10.37,2013-01-14 22:03:00,
2013-01-14 16:08:00,25.4,16.0,30.50,West,273,0.0,0.0,67,0.00,CLR,,0.00,84.0,WeatherDisplay:10.37,2013-01-14 22:08:00,
2013-01-14 16:13:00,25.2,15.8,30.50,West,273,1.1,0.0,67,0.00,CLR,,0.00,70.0,WeatherDisplay:10.37,2013-01-14 22:13:00,
2013-01-14 16:18:00,25.0,15.9,30.50,West,273,0.0,0.0,68,0.00,CLR,,0.00,60.0,WeatherDisplay:10.37,2013-01-14 22:18:00,
2013-01-14 16:23:00,24.9,15.5,30.50,West,273,0.0,0.0,67,0.00,CLR,,0.00,46.0,WeatherDisplay:10.37,2013-01-14 22:23:00,
2013-01-14 16:28:00,24.8,15.4,30.50,West,273,0.0,0.0,67,0.00,CLR,,0.00,33.0,WeatherDisplay:10.37,2013-01-14 22:28:00,
2013-01-14 16:33:00,24.5,15.4,30.50,West,273,0.0,0.0,68,0.00,CLR,,0.00,25.0,WeatherDisplay:10.37,2013-01-14 22:33:00,
2013-01-14 16:38:00,24.2,14.8,30.50,West,273,0.0,0.0,67,0.00,CLR,,0.00,14.0,WeatherDisplay:10.37,2013-01-14 22:38:00,
2013-01-14 16:43:00,23.7,14.7,30.49,West,273,0.0,0.0,68,0.00,CLR,,0.00,7.0,WeatherDisplay:10.37,2013-01-14 22:43:00,
2013-01-14 16:48:00,23.3,15.0,30.49,West,273,0.0,0.0,70,0.00,CLR,,0.00,0.0,WeatherDisplay:10.37,2013-01-14 22:48:00,
2013-01-14 16:53:00,22.8,15.1,30.49,West,273,0.0,0.0,72,0.00,CLR,,0.00,0.0,WeatherDisplay:10.37,2013-01-14 22:53:00,
2013-01-14 16:58:00,22.5,15.5,30.49,West,273,0.0,0.0,74,0.00,CLR,,0.00,0.0,WeatherDisplay:10.37,2013-01-14 22:58:00,
2013-01-14 17:03:00,22.3,15.3,30.49,West,273,0.0,0.0,74,0.00,CLR,,0.00,0.0,WeatherDisplay:10.37,2013-01-14 23:03:00,
2013-01-14 17:08:00,22.4,15.7,30.49,West,273,0.0,0.0,75,0.00,CLR,,0.00,0.0,WeatherDisplay:10.37,2013-01-14 23:08:00,
2013-01-14 17:13:00,22.4,15.7,30.49,West,273,0.0,0.0,75,0.00,CLR,,0.00,0.0,WeatherDisplay:10.37,2013-01-14 23:13:00,
2013-01-14 17:18:00,22.4,15.7,30.49,West,273,0.0,0.0,75,0.00,CLR,,0.00,0.0,WeatherDisplay:10.37,2013-01-14 23:18:00,
2013-01-14 17:23:00,22.3,15.6,30.49,West,273,0.0,0.0,75,0.00,CLR,,0.00,0.0,WeatherDisplay:10.37,2013-01-14 23:23:00,
2013-01-14 17:28:00,22.2,15.5,30.49,West,273,0.0,0.0,75,0.00,CLR,,0.00,0.0,WeatherDisplay:10.37,2013-01-14 23:28:00,
2013-01-14 17:33:00,22.2,15.5,30.49,West,273,0.0,0.0,75,0.00,CLR,,0.00,0.0,WeatherDisplay:10.37,2013-01-14 23:33:00,
2013-01-14 17:38:00,22.2,15.5,30.49,West,273,0.0,0.0,75,0.00,CLR,,0.00,0.0,WeatherDisplay:10.37,2013-01-14 23:38:00,
2013-01-14 17:43:00,22.0,15.3,30.48,West,273,1.0,1.0,75,0.00,CLR,,0.00,0.0,WeatherDisplay:10.37,2013-01-14 23:43:00,
2013-01-14 17:48:00,21.4,14.4,30.48,SW,229,2.3,2.3,74,0.00,CLR,,0.00,0.0,WeatherDisplay:10.37,2013-01-14 23:48:00,
2013-01-14 17:53:00,21.0,14.6,30.49,SW,229,0.0,0.0,76,0.00,CLR,,0.00,0.0,WeatherDisplay:10.37,2013-01-14 23:53:00,
2013-01-14 17:58:00,20.7,14.9,30.49,SW,229,0.0,0.0,78,0.00,CLR,,0.00,0.0,WeatherDisplay:10.37,2013-01-14 23:58:00,
2013-01-14 18:04:00,20.7,15.2,30.49,SW,229,0.0,0.0,79,0.00,CLR,,0.00,0.0,WeatherDisplay:10.37,2013-01-15 00:04:00,
2013-01-14 18:08:00,20.8,15.3,30.50,SW,229,0.0,0.0,79,0.00,CLR,,0.00,0.0,WeatherDisplay:10.37,2013-01-15 00:08:00,
2013-01-14 18:13:00,20.8,15.3,30.49,SW,229,0.0,0.0,79,0.00,CLR,,0.00,0.0,WeatherDisplay:10.37,2013-01-15 00:13:00,
2013-01-14 18:18:00,20.9,15.7,30.49,SW,229,0.0,0.0,80,0.00,CLR,,0.00,0.0,WeatherDisplay:10.37,2013-01-15 00:18:00,
2013-01-14 18:23:00,21.1,15.9,30.49,SW,229,0.0,0.0,80,0.00,CLR,,0.00,0.0,WeatherDisplay:10.37,2013-01-15 00:23:00,
2013-01-14 18:29:00,21.0,15.8,30.50,SW,229,0.0,0.0,80,0.00,CLR,,0.00,0.0,WeatherDisplay:10.37,2013-01-15 00:29:00,
2013-01-14 18:34:00,21.0,16.1,30.50,SW,229,0.0,0.0,81,0.00,CLR,,0.00,0.0,WeatherDisplay:10.37,2013-01-15 00:34:00,
2013-01-14 18:39:00,20.9,15.7,30.50,SW,229,0.0,0.0,80,0.00,CLR,,0.00,0.0,WeatherDisplay:10.37,2013-01-15 00:39:00,
2013-01-14 18:44:00,21.0,15.8,30.50,SW,229,0.0,0.0,80,0.00,CLR,,0.00,0.0,WeatherDisplay:10.37,2013-01-15 00:44:00,
2013-01-14 18:49:00,20.9,15.4,30.49,SW,229,0.0,0.0,79,0.00,CLR,,0.00,0.0,WeatherDisplay:10.37,2013-01-15 00:49:00,
2013-01-14 18:54:00,20.7,15.2,30.49,SW,229,0.0,0.0,79,0.00,CLR,,0.00,0.0,WeatherDisplay:10.37,2013-01-15 00:54:00,
2013-01-14 18:59:00,20.4,14.9,30.49,SW,229,0.0,0.0,79,0.00,CLR,,0.00,0.0,WeatherDisplay:10.37,2013-01-15 00:59:00,
2013-01-14 19:04:00,20.1,14.9,30.49,SW,229,0.0,0.0,80,0.00,CLR,,0.00,0.0,WeatherDisplay:10.37,2013-01-15 01:04:00,
2013-01-14 19:09:00,19.8,14.9,30.49,SW,229,0.0,0.0,81,0.00,CLR,,0.00,0.0,WeatherDisplay:10.37,2013-01-15 01:09:00,
2013-01-14 19:14:00,19.7,15.1,30.49,SW,229,0.0,0.0,82,0.00,CLR,,0.00,0.0,WeatherDisplay:10.37,2013-01-15 01:14:00,
2013-01-14 19:19:00,19.7,15.1,30.48,SW,229,0.0,0.0,82,0.00,CLR,,0.00,0.0,WeatherDisplay:10.37,2013-01-15 01:19:00,
2013-01-14 19:24:00,19.8,15.2,30.48,SW,229,0.0,0.0,82,0.00,CLR,,0.00,0.0,WeatherDisplay:10.37,2013-01-15 01:24:00,
2013-01-14 19:29:00,19.9,15.0,30.48,SW,229,0.0,0.0,81,0.00,CLR,,0.00,0.0,WeatherDisplay:10.37,2013-01-15 01:29:00,
2013-01-14 19:34:00,19.9,15.0,30.48,SW,229,0.0,0.0,81,0.00,CLR,,0.00,0.0,WeatherDisplay:10.37,2013-01-15 01:34:00,
2013-01-14 19:39:00,20.1,15.2,30.48,SW,229,0.0,0.0,81,0.00,CLR,,0.00,0.0,WeatherDisplay:10.37,2013-01-15 01:39:00,
2013-01-14 19:44:00,20.2,15.3,30.48,SW,229,0.0,0.0,81,0.00,CLR,,0.00,0.0,WeatherDisplay:10.37,2013-01-15 01:44:00,
2013-01-14 19:49:00,20.2,15.3,30.48,SW,229,0.0,0.0,81,0.00,CLR,,0.00,0.0,WeatherDisplay:10.37,2013-01-15 01:49:00,
2013-01-14 19:54:00,20.0,15.1,30.48,SW,229,0.0,0.0,81,0.00,CLR,,0.00,0.0,WeatherDisplay:10.37,2013-01-15 01:54:00,
2013-01-14 19:59:00,19.8,14.9,30.48,SW,229,0.0,0.0,81,0.00,CLR,,0.00,0.0,WeatherDisplay:10.37,2013-01-15 01:59:00,
2013-01-14 20:04:00,19.5,14.6,30.48,SW,229,0.0,0.0,81,0.00,CLR,,0.00,0.0,WeatherDisplay:10.37,2013-01-15 02:04:00,
2013-01-14 20:09:00,19.2,14.6,30.48,SW,229,0.0,0.0,82,0.00,CLR,,0.00,0.0,WeatherDisplay:10.37,2013-01-15 02:09:00,
2013-01-14 20:14:00,19.0,14.7,30.48,SW,229,0.0,0.0,83,0.00,CLR,,0.00,0.0,WeatherDisplay:10.37,2013-01-15 02:14:00,
2013-01-14 20:19:00,18.8,14.5,30.47,SW,229,0.0,0.0,83,0.00,CLR,,0.00,0.0,WeatherDisplay:10.37,2013-01-15 02:19:00,
2013-01-14 20:24:00,18.6,14.3,30.47,SW,229,0.0,0.0,83,0.00,CLR,,0.00,0.0,WeatherDisplay:10.37,2013-01-15 02:24:00,
2013-01-14 20:29:00,18.4,13.8,30.47,SW,229,0.0,0.0,82,0.00,CLR,,0.00,0.0,WeatherDisplay:10.37,2013-01-15 02:29:00,
2013-01-14 20:34:00,18.0,13.4,30.47,SW,229,0.0,0.0,82,0.00,CLR,,0.00,0.0,WeatherDisplay:10.37,2013-01-15 02:34:00,
2013-01-14 20:39:00,17.7,13.1,30.47,SW,229,0.0,0.0,82,0.00,CLR,,0.00,0.0,WeatherDisplay:10.37,2013-01-15 02:39:00,
2013-01-14 20:44:00,17.6,13.3,30.47,SW,229,0.0,0.0,83,0.00,CLR,,0.00,0.0,WeatherDisplay:10.37,2013-01-15 02:44:00,
2013-01-14 20:49:00,17.7,13.7,30.47,SW,229,0.0,0.0,84,0.00,CLR,,0.00,0.0,WeatherDisplay:10.37,2013-01-15 02:49:00,
2013-01-14 20:54:00,17.7,13.7,30.47,SW,229,0.0,0.0,84,0.00,CLR,,0.00,0.0,WeatherDisplay:10.37,2013-01-15 02:54:00,
2013-01-14 20:59:00,17.8,13.8,30.47,SW,229,0.0,0.0,84,0.00,CLR,,0.00,0.0,WeatherDisplay:10.37,2013-01-15 02:59:00,
2013-01-14 21:04:00,17.9,13.9,30.47,SW,229,0.0,0.0,84,0.00,CLR,,0.00,0.0,WeatherDisplay:10.37,2013-01-15 03:04:00,
2013-01-14 21:09:00,17.7,13.4,30.47,SW,229,0.0,0.0,83,0.00,CLR,,0.00,0.0,WeatherDisplay:10.37,2013-01-15 03:09:00,
2013-01-14 21:14:00,17.4,13.1,30.47,SW,229,0.0,0.0,83,0.00,CLR,,0.00,0.0,WeatherDisplay:10.37,2013-01-15 03:14:00,
2013-01-14 21:19:00,17.6,13.9,30.47,SW,229,0.0,0.0,85,0.00,CLR,,0.00,0.0,WeatherDisplay:10.37,2013-01-15 03:19:00,
2013-01-14 21:24:00,17.8,14.1,30.47,SW,229,1.0,1.0,85,0.00,CLR,,0.00,0.0,WeatherDisplay:10.37,2013-01-15 03:24:00,
2013-01-14 21:29:00,17.9,13.9,30.46,WSW,250,2.3,2.3,84,0.00,CLR,,0.00,0.0,WeatherDisplay:10.37,2013-01-15 03:29:00,
2013-01-14 21:34:00,18.0,14.0,30.46,WSW,250,0.0,0.0,84,0.00,CLR,,0.00,0.0,WeatherDisplay:10.37,2013-01-15 03:34:00,
2013-01-14 21:39:00,18.0,13.7,30.46,WSW,250,0.0,0.0,83,0.00,CLR,,0.00,0.0,WeatherDisplay:10.37,2013-01-15 03:39:00,
2013-01-14 21:44:00,17.8,13.2,30.46,WSW,250,0.0,0.0,82,0.00,CLR,,0.00,0.0,WeatherDisplay:10.37,2013-01-15 03:44:00,
2013-01-14 21:49:00,17.6,13.0,30.46,WSW,250,0.0,0.0,82,0.00,CLR,,0.00,0.0,WeatherDisplay:10.37,2013-01-15 03:49:00,
2013-01-14 21:54:00,17.6,13.0,30.46,WSW,250,0.0,0.0,82,0.00,CLR,,0.00,0.0,WeatherDisplay:10.37,2013-01-15 03:54:00,
2013-01-14 21:59:00,17.4,12.6,30.46,WSW,250,0.0,0.0,81,0.00,CLR,,0.00,0.0,WeatherDisplay:10.37,2013-01-15 03:59:00,
2013-01-14 22:04:00,17.2,12.4,30.46,WSW,250,0.0,0.0,81,0.00,CLR,,0.00,0.0,WeatherDisplay:10.37,2013-01-15 04:04:00,
2013-01-14 22:09:00,17.2,12.4,30.46,WSW,250,0.0,0.0,81,0.00,CLR,,0.00,0.0,WeatherDisplay:10.37,2013-01-15 04:09:00,
2013-01-14 22:14:00,17.3,12.5,30.46,WSW,250,0.0,0.0,81,0.00,CLR,,0.00,0.0,WeatherDisplay:10.37,2013-01-15 04:14:00,
2013-01-14 22:19:00,17.2,12.4,30.46,WSW,250,0.0,0.0,81,0.00,CLR,,0.00,0.0,WeatherDisplay:10.37,2013-01-15 04:19:00,
2013-01-14 22:24:00,17.0,12.5,30.46,WSW,250,0.0,0.0,82,0.00,CLR,,0.00,0.0,WeatherDisplay:10.37,2013-01-15 04:24:00,
2013-01-14 22:29:00,17.0,12.5,30.47,WSW,250,0.0,0.0,82,0.00,CLR,,0.00,0.0,WeatherDisplay:10.37,2013-01-15 04:29:00,
2013-01-14 22:34:00,17.0,12.5,30.46,WSW,250,0.0,0.0,82,0.00,CLR,,0.00,0.0,WeatherDisplay:10.37,2013-01-15 04:34:00,
2013-01-14 22:39:00,17.0,12.5,30.47,WSW,250,0.0,0.0,82,0.00,CLR,,0.00,0.0,WeatherDisplay:10.37,2013-01-15 04:39:00,
2013-01-14 22:44:00,16.6,12.1,30.47,WSW,250,2.3,2.3,82,0.00,CLR,,0.00,0.0,WeatherDisplay:10.37,2013-01-15 04:44:00,
2013-01-14 22:49:00,16.4,12.1,30.47,WSW,250,0.0,0.0,83,0.00,CLR,,0.00,0.0,WeatherDisplay:10.37,2013-01-15 04:49:00,
2013-01-14 22:54:00,16.4,12.1,30.47,WSW,250,0.0,0.0,83,0.00,CLR,,0.00,0.0,WeatherDisplay:10.37,2013-01-15 04:54:00,
2013-01-14 22:59:00,16.3,12.0,30.47,WSW,250,0.0,0.0,83,0.00,CLR,,0.00,0.0,WeatherDisplay:10.37,2013-01-15 04:59:00,
2013-01-14 23:00:00,16.3,12.0,30.47,WSW,250,0.0,0.0,83,0.00,CLR,,0.00,0.0,WeatherDisplay:10.37,2013-01-15 05:00:00,
2013-01-14 23:01:00,16.3,12.0,30.47,WSW,250,0.0,0.0,83,0.00,CLR,,0.00,0.0,WeatherDisplay:10.37,2013-01-15 05:01:00,
2013-01-14 23:02:00,16.3,12.0,30.47,WSW,250,0.0,0.0,83,0.00,CLR,,0.00,0.0,WeatherDisplay:10.37,2013-01-15 05:02:00,
2013-01-14 23:07:00,16.3,12.0,30.47,WSW,250,0.0,0.0,83,0.00,CLR,,0.00,0.0,WeatherDisplay:10.37,2013-01-15 05:07:00,
2013-01-14 23:12:00,16.3,12.0,30.47,WSW,250,0.0,0.0,83,0.00,CLR,,0.00,0.0,WeatherDisplay:10.37,2013-01-15 05:12:00,
2013-01-14 23:17:00,16.4,11.9,30.47,WSW,250,0.0,0.0,82,0.00,CLR,,0.00,0.0,WeatherDisplay:10.37,2013-01-15 05:17:00,
2013-01-14 23:22:00,16.2,11.7,30.47,WSW,250,0.0,0.0,82,0.00,CLR,,0.00,0.0,WeatherDisplay:10.37,2013-01-15 05:22:00,
2013-01-14 23:27:00,16.0,11.5,30.47,WSW,250,0.0,0.0,82,0.00,CLR,,0.00,0.0,WeatherDisplay:10.37,2013-01-15 05:27:00,
2013-01-14 23:32:00,15.9,11.7,30.47,WSW,250,0.0,0.0,83,0.00,CLR,,0.00,0.0,WeatherDisplay:10.37,2013-01-15 05:32:00,
2013-01-14 23:37:00,15.6,11.4,30.48,WSW,250,0.0,0.0,83,0.00,CLR,,0.00,0.0,WeatherDisplay:10.37,2013-01-15 05:37:00,
2013-01-14 23:42:00,15.4,11.4,30.48,WSW,250,0.0,0.0,84,0.00,CLR,,0.00,0.0,WeatherDisplay:10.37,2013-01-15 05:42:00,
2013-01-14 23:47:00,15.2,11.2,30.47,WSW,250,0.0,0.0,84,0.00,CLR,,0.00,0.0,WeatherDisplay:10.37,2013-01-15 05:47:00,
2013-01-14 23:52:00,15.0,11.3,30.48,WSW,250,2.3,2.3,85,0.00,CLR,,0.00,0.0,WeatherDisplay:10.37,2013-01-15 05:52:00,
2013-01-14 23:57:00,14.8,11.4,30.48,WSW,250,1.1,1.1,86,0.00,CLR,,0.00,0.0,WeatherDisplay:10.37,2013-01-15 05:57:00,